This is the latest recevied weather packets stored in our database for station/object OK1TOM-6. If no packets are shown the sender has not sent any weather packets the latest 10 day(s).
| Time | Temp. | Humidity | Pressure | Rain* | Wind** | Luminosity | Snow |
|---|---|---|---|---|---|---|---|
| 1777943133 | 12.22° C | 80% | 1013.5 hPa | 0 mm | - | - | - |
| 1777942529 | 12.22° C | 81% | 1013.6 hPa | 0 mm | - | - | - |
| 1777941926 | 12.22° C | 80% | 1013.7 hPa | 0 mm | - | - | - |
| 1777941323 | 12.78° C | 78% | 1013.9 hPa | 0 mm | - | - | - |
| 1777940719 | 12.78° C | 79% | 1014 hPa | 0 mm | - | - | - |
| 1777940116 | 13.33° C | 77% | 1014.2 hPa | 0 mm | - | - | - |
| 1777939573 | 12.78° C | 77% | 1014.2 hPa | 0 mm | - | - | - |
| 1777938969 | 12.78° C | 77% | 1014.3 hPa | 0 mm | - | - | - |
| 1777938366 | 12.78° C | 76% | 1014.3 hPa | 0 mm | - | - | - |
| 1777937762 | 13.33° C | 77% | 1014.3 hPa | 0 mm | - | - | - |
| 1777937159 | 12.78° C | 77% | 1014.4 hPa | 0 mm | - | - | - |
| 1777936555 | 13.33° C | 76% | 1014.4 hPa | 0 mm | - | - | - |
| 1777935952 | 13.33° C | 76% | 1014.5 hPa | 0 mm | - | - | - |
| 1777935349 | 13.33° C | 74% | 1014.6 hPa | 0 mm | - | - | - |
| 1777934745 | 13.33° C | 75% | 1014.7 hPa | 0 mm | - | - | - |
| 1777934142 | 13.89° C | 73% | 1014.8 hPa | 0 mm | - | - | - |
| 1777933538 | 13.89° C | 72% | 1014.8 hPa | 0 mm | - | - | - |
| 1777932935 | 13.33° C | 72% | 1014.8 hPa | 0 mm | - | - | - |
| 1777932331 | 13.33° C | 72% | 1014.9 hPa | 0 mm | - | - | - |
| 1777931728 | 13.89° C | 70% | 1014.7 hPa | 0 mm | - | - | - |
| 1777931124 | 14.44° C | 68% | 1014.7 hPa | 0 mm | - | - | - |
| 1777930521 | 13.89° C | 69% | 1014.8 hPa | 0 mm | - | - | - |
| 1777929917 | 14.44° C | 68% | 1014.9 hPa | 0 mm | - | - | - |
| 1777929374 | 14.44° C | 67% | 1015 hPa | 0 mm | - | - | - |
| 1777928771 | 14.44° C | 66% | 1015 hPa | 0 mm | - | - | - |
* Rain latest hour (hover to see other rain measurements)
** Current wind speed in m/s (hover to see current wind gust speed)